FLORIPASAT-1 (44885 NORAD) Tracking and Keplerian Element Data

This shows tracking and keplerian element data for the satellite.

Feedback or suggestion? Click here.




ElementValue
Catalog44885
NameFLORIPASAT-1
Epoch Orbit502
Epoch Day23.08076673
Epoch Year2020
RAAN100.0466
Inclination97.9734
Eccentricity0.0015268
Argument of Perigee158.7526
Mean Anonmoly201.4316
Mean Motion14.81956039
Decay Rate1.45E-06
L11 44885U 19093G 20023.08076673 .00000145 00000-0 25005-4 0 9991
L22 44885 97.9734 100.0466 0015268 158.7526 201.4316 14.81956039 5023

Live tracking and technical data element details for FLORIPASAT-1 (NORAD 44885). FLORIPASAT-1 can be tracked NOW for your location showing map with azimuth and elevation plus other details from your city location.

Track the satellite on the map from your city or location and see movement details for azimuth, elevation, latitude, longitude, range, height, and movement on the map or in text.







IsCatalogInMostPopularTable: catalog: 44885, numindb: 5
Update: records affected: 1



GetName: 44885 FLORIPASAT-1

Hit Count: updated at: Fri, 24 Jan 2020 14:21:42 GMT